Weather History for Owatonna, MN

Change the Weather History Date:

Monday, January 9, 2012

  Actual Average Record
Temperature  
Mean Temperature 40 °F -  
Max Temperature 48 °F 19 °F 48 °F (2012)
Min Temperature 32 °F 1 °F -35 °F (1977)
Degree Days  
Heating Degree Days 25    
Moisture  
Dew Point 30 °F    
Average Humidity 74    
Maximum Humidity 87    
Minimum Humidity 53    
Precipitation  
Precipitation 0.00 in - - ()
Sea Level Pressure  
Sea Level Pressure 29.96 in    
Wind  
Wind Speed 13 mph (SW)    
Max Wind Speed 20 mph    
Max Gust Speed 28 mph    
Visibility 10 miles    
Events      
Averages and records for this station are not official NWS values.
T = Trace of Precipitation, MM = Missing Value Source: NWS Daily Summary

Daily Weather History Graph

Daily Weather History Graph

Search for Another Location

Airport:

Trip Planner

Search our weather history database for the weather conditions in past years. The results will help you decide how hot, cold, wet, or windy it might be!

Date:

Astronomy

Jan. 09, 2012 Rise Set
Actual Time 7:47 AM CST 4:52 PM CST
Civil Twilight 7:14 AM CST 5:25 PM CST
Nautical Twilight 6:38 AM CST 6:01 PM CST
Astronomical Twilight 6:03 AM CST 6:36 PM CST
Moon 5:42 PM CST (1/9) 7:46 AM CST (1/9)
Length of Visible Light 10h 10m
Length of Day
9h 05m
Full, 100% of the Moon is Illuminated
Jan 9
Full
Jan 16
Last Quarter
Jan 23
New
Jan 30
First Quarter
Feb 7
Full

Hourly Weather History & Observations

Time (CST) Temp. Windchill Dew Point Humidity Pressure Visibility Wind Dir Wind Speed Gust Speed Precip Events Conditions
12:14 AM 33.8 °F 25.3 °F 28.4 °F 81% 30.09 in 10.0 mi SSW 11.5 mph - N/A   Clear
12:34 AM 33.8 °F 24.8 °F 28.4 °F 81% 30.08 in 10.0 mi SSW 12.7 mph - N/A   Clear
12:54 AM 33.8 °F 24.8 °F 28.4 °F 81% 30.07 in 10.0 mi SSW 12.7 mph - N/A   Clear
1:14 AM 33.8 °F 23.9 °F 28.4 °F 81% 30.06 in 10.0 mi SSW 15.0 mph 18.4 mph N/A   Clear
1:34 AM 33.8 °F 24.3 °F 28.4 °F 81% 30.05 in 10.0 mi SSW 13.8 mph 19.6 mph N/A   Clear
1:54 AM 33.8 °F 24.3 °F 28.4 °F 81% 30.05 in 10.0 mi SSW 13.8 mph - N/A   Clear
2:14 AM 33.8 °F 24.8 °F 28.4 °F 81% 30.04 in 10.0 mi SSW 12.7 mph - N/A   Clear
2:34 AM 33.8 °F 23.5 °F 28.4 °F 81% 30.03 in 10.0 mi SW 16.1 mph 21.9 mph N/A   Clear
2:54 AM 35.6 °F 25.9 °F 30.2 °F 81% 30.04 in 10.0 mi SW 16.1 mph 20.7 mph N/A   Clear
3:14 AM 35.6 °F 24.8 °F 30.2 °F 81% 30.02 in 10.0 mi SW 19.6 mph 23.0 mph N/A   Clear
3:34 AM 35.6 °F 25.2 °F 30.2 °F 81% 30.01 in 10.0 mi SW 18.4 mph - N/A   Clear
3:54 AM 35.6 °F 25.5 °F 30.2 °F 81% 30.00 in 10.0 mi SW 17.3 mph 24.2 mph N/A   Clear
4:34 AM 33.8 °F 22.8 °F 30.2 °F 87% 29.97 in 10.0 mi SW 18.4 mph 21.9 mph N/A   Clear
4:54 AM 33.8 °F 24.3 °F 30.2 °F 87% 29.97 in 10.0 mi SW 13.8 mph 21.9 mph N/A   Clear
5:14 AM 33.8 °F 23.9 °F 30.2 °F 87% 29.98 in 10.0 mi SW 15.0 mph - N/A   Clear
5:34 AM 33.8 °F 25.3 °F 28.4 °F 81% 29.98 in 10.0 mi SW 11.5 mph 16.1 mph N/A   Clear
6:14 AM 33.8 °F 23.9 °F 28.4 °F 81% 29.96 in 10.0 mi SW 15.0 mph - N/A   Clear
6:34 AM 33.8 °F 23.2 °F 28.4 °F 81% 29.95 in 10.0 mi SSW 17.3 mph 21.9 mph N/A   Clear
6:54 AM 33.8 °F 23.2 °F 28.4 °F 81% 29.95 in 10.0 mi SW 17.3 mph 27.6 mph N/A   Clear
7:14 AM 33.8 °F 23.9 °F 28.4 °F 81% 29.95 in 10.0 mi SW 15.0 mph - N/A   Clear
7:34 AM 32.0 °F 21.6 °F 28.4 °F 87% 29.94 in 10.0 mi SW 15.0 mph - N/A   Clear
7:54 AM 32.0 °F 22.1 °F 28.4 °F 87% 29.94 in 10.0 mi SW 13.8 mph - N/A   Clear
8:14 AM 32.0 °F 22.5 °F 28.4 °F 87% 29.94 in 10.0 mi SW 12.7 mph - N/A   Clear
8:34 AM 33.8 °F 24.3 °F 28.4 °F 81% 29.94 in 10.0 mi SW 13.8 mph 18.4 mph N/A   Clear
8:54 AM 33.8 °F 22.8 °F 28.4 °F 81% 29.94 in 10.0 mi SW 18.4 mph - N/A   Clear
9:14 AM 33.8 °F 22.8 °F 28.4 °F 81% 29.94 in 10.0 mi WSW 18.4 mph - N/A   Clear
10:14 AM 37.4 °F 28.5 °F 28.4 °F 70% 29.94 in 10.0 mi WSW 15.0 mph - N/A   Clear
10:35 AM 39.2 °F 30.8 °F 28.4 °F 65% 29.94 in 10.0 mi WSW 15.0 mph - N/A   Clear
10:54 AM 39.2 °F 31.2 °F 28.4 °F 65% 29.94 in 10.0 mi WSW 13.8 mph - N/A   Clear
11:14 AM 39.2 °F 31.6 °F 28.4 °F 65% 29.93 in 10.0 mi WSW 12.7 mph - N/A   Clear
11:34 AM 42.8 °F 34.8 °F 28.4 °F 57% 29.93 in - West 17.3 mph - N/A   Clear
11:54 AM 42.8 °F 35.4 °F 28.4 °F 57% 29.92 in 10.0 mi West 15.0 mph - N/A   Clear
12:14 PM 44.6 °F 38.1 °F 28.4 °F 53% 29.91 in 10.0 mi West 13.8 mph 17.3 mph N/A   Clear
12:34 PM 44.6 °F 37.4 °F 28.4 °F 53% 29.90 in 10.0 mi West 16.1 mph - N/A   Clear
12:54 PM 44.6 °F 41.4 °F 30.2 °F 57% 29.90 in 10.0 mi West 5.8 mph 16.1 mph N/A   Clear
1:14 PM 46.4 °F 40.4 °F 30.2 °F 53% 29.90 in 10.0 mi West 13.8 mph - N/A   Clear
1:34 PM 46.4 °F 41.1 °F 30.2 °F 53% 29.90 in 10.0 mi West 11.5 mph - N/A   Clear
1:54 PM 46.4 °F 41.5 °F 32.0 °F 57% 29.90 in 10.0 mi WSW 10.4 mph - N/A   Clear
2:14 PM 46.4 °F 41.5 °F 32.0 °F 57% 29.90 in 10.0 mi West 10.4 mph - N/A   Clear
2:34 PM 48.2 °F - 32.0 °F 54% 29.90 in 10.0 mi West 3.5 mph 11.5 mph N/A   Clear
2:54 PM 48.2 °F - 32.0 °F 54% 29.91 in 10.0 mi West 12.7 mph - N/A   Clear
3:14 PM 48.2 °F - 32.0 °F 54% 29.92 in 10.0 mi West 12.7 mph 16.1 mph N/A   Clear
3:34 PM 46.4 °F 41.9 °F 33.8 °F 62% 29.91 in 10.0 mi West 9.2 mph - N/A   Clear
3:54 PM 46.4 °F 42.9 °F 33.8 °F 62% 29.91 in 10.0 mi WSW 6.9 mph - N/A   Clear
4:14 PM 44.6 °F 40.7 °F 33.8 °F 66% 29.91 in 10.0 mi WSW 6.9 mph - N/A   Clear
4:34 PM 42.8 °F 38.0 °F 33.8 °F 70% 29.92 in 10.0 mi SW 8.1 mph - N/A   Clear
4:54 PM 39.2 °F 34.2 °F 32.0 °F 75% 29.92 in 10.0 mi SW 6.9 mph - N/A   Clear
5:14 PM 37.4 °F 33.8 °F 30.2 °F 75% 29.93 in 10.0 mi SW 4.6 mph - N/A   Clear
5:34 PM 35.6 °F 32.8 °F 30.2 °F 81% 29.94 in 10.0 mi SW 3.5 mph - N/A   Clear
5:54 PM 35.6 °F 31.7 °F 30.2 °F 81% 29.94 in 10.0 mi SSW 4.6 mph - N/A   Clear
6:14 PM 35.6 °F 32.8 °F 30.2 °F 81% 29.95 in 10.0 mi SW 3.5 mph - N/A   Clear
6:34 PM 35.6 °F 30.7 °F 30.2 °F 81% 29.95 in 10.0 mi SW 5.8 mph - N/A   Clear
6:54 PM 35.6 °F 31.7 °F 32.0 °F 87% 29.95 in 10.0 mi SW 4.6 mph - N/A   Clear
7:14 PM 37.4 °F 32.8 °F 32.0 °F 81% 29.95 in 10.0 mi SW 5.8 mph - N/A   Clear
7:34 PM 35.6 °F 29.9 °F 32.0 °F 87% 29.96 in 10.0 mi SSW 6.9 mph - N/A   Clear
7:54 PM 37.4 °F 32.1 °F 33.8 °F 87% 29.97 in 10.0 mi SW 6.9 mph - N/A   Clear
8:14 PM 37.4 °F 30.8 °F 32.0 °F 81% 29.97 in 10.0 mi SW 9.2 mph - N/A   Clear
8:34 PM 37.4 °F 32.1 °F 32.0 °F 81% 29.97 in 10.0 mi SW 6.9 mph - N/A   Clear
8:54 PM 35.6 °F 30.7 °F 32.0 °F 87% 29.96 in 10.0 mi SW 5.8 mph - N/A   Clear
9:14 PM 35.6 °F 29.9 °F 32.0 °F 87% 29.96 in 10.0 mi SW 6.9 mph - N/A   Clear
9:34 PM 35.6 °F 29.2 °F 30.2 °F 81% 29.96 in 10.0 mi SW 8.1 mph - N/A   Clear
9:54 PM 35.6 °F 28.6 °F 30.2 °F 81% 29.97 in 10.0 mi SW 9.2 mph - N/A   Clear
10:14 PM 35.6 °F 29.2 °F 30.2 °F 81% 29.97 in 10.0 mi SSW 8.1 mph - N/A   Clear
10:34 PM 35.6 °F 29.9 °F 30.2 °F 81% 29.97 in 10.0 mi SW 6.9 mph - N/A   Clear
10:54 PM 35.6 °F 31.7 °F 30.2 °F 81% 29.97 in 10.0 mi SW 4.6 mph - N/A   Clear
11:14 PM 33.8 °F - 30.2 °F 87% 29.97 in 10.0 mi Calm Calm - N/A   Clear
11:54 PM 30.2 °F - 28.4 °F 93% 29.97 in 10.0 mi Calm Calm - N/A   Clear